Location: Bastelaar
(51.0950°N, 3.8602°E)
Time: 07:03:50
(UTC+00:00)

Cosmos 44 Rocket - Visible Passes

Search period start: 12 February 2026 00:00
Search period end: 22 February 2026 00:00
Orbit: 633 x 744 km, 65.1° (Epoch: 11 February)

Date Brightness Start Highest point End Pass type
(mag) Time Alt. Az. Time Alt. Az. Time Alt. Az.
12 Feb 3.3 18:56:05 10° SSW 19:00:55 58° SE 19:02:15 43° ENE visible
12 Feb 5.2 20:38:00 10° W 20:40:54 28° WNW 20:40:54 28° WNW visible
13 Feb 4.3 17:55:29 10° S 17:59:36 27° ESE 18:03:10 13° ENE visible
13 Feb 3.7 19:35:45 10° SW 19:40:40 62° NW 19:41:49 49° N visible
13 Feb 6.1 21:19:04 10° WNW 21:20:26 16° WNW 21:20:26 16° WNW visible
14 Feb 3.3 18:34:06 10° SSW 18:39:00 68° SE 18:42:35 19° NE visible
14 Feb 4.8 20:16:18 10° W 20:20:49 33° NNW 20:21:12 32° NNW visible
15 Feb 4.2 17:33:18 10° S 17:37:37 32° ESE 17:42:05 10° NE visible
15 Feb 4.0 19:13:56 10° WSW 19:18:50 55° NW 19:21:51 23° NNE visible
15 Feb 5.6 20:57:26 10° WNW 21:00:28 21° NNW 21:00:28 21° NNW visible
16 Feb 3.3 18:12:09 10° SSW 18:17:06 78° SE 18:22:13 10° NE visible
16 Feb 5.0 19:54:37 10° W 19:59:02 30° NNW 20:01:00 23° N visible
16 Feb 6.3 21:38:38 10° NW 21:39:37 13° NW 21:39:37 13° NW visible
17 Feb 4.2 18:52:09 10° WSW 18:56:59 49° NW 19:01:27 13° NNE visible
17 Feb 5.5 20:35:47 10° WNW 20:39:34 20° NNW 20:40:04 20° N visible
18 Feb 3.4 17:50:14 10° SW 17:55:12 88° SE 18:00:22 10° NE visible
18 Feb 5.1 19:32:56 10° W 19:37:15 28° NNW 19:40:25 16° NNE visible
18 Feb 6.0 21:16:57 10° NW 21:19:01 16° NNW 21:19:01 16° NNW visible
19 Feb 4.4 18:30:22 10° WSW 18:35:09 44° NW 18:40:05 10° NE visible
19 Feb 5.5 20:14:09 10° WNW 20:17:50 20° NNW 20:19:20 17° N visible
19 Feb 6.4 21:57:31 10° NNW 21:57:55 11° NNW 21:57:55 11° NNW visible
20 Feb 5.2 19:11:16 10° W 19:15:29 26° NNW 19:19:36 11° NNE visible
20 Feb 5.7 20:55:14 10° NW 20:58:11 17° N 20:58:11 17° N visible
21 Feb 4.6 18:08:37 10° WSW 18:13:20 40° NW 18:18:11 10° NNE visible
21 Feb 5.6 19:52:30 10° WNW 19:56:06 19° NNW 19:58:24 15° NNE visible
21 Feb 6.1 21:35:41 10° NNW 21:36:59 14° NNW 21:36:59 14° NNW visible
